Vertical_Velocity
-1 -0 1 1 -2 -0 3 3 2 3 8 2 5 2 -1 -5 -4 -2 2 -1 1 3 0 8 6 5 5 -8 -4 -0 2 1 6 2 1 -1 1 -7 6 -3 2 4 -0 0
-1 -4 -3 0 -1 -0 -1 -0 -2 -2 -0 4 -2 -1 -1 1 -3 -1 -2 -1 -4 1 2 1 4 6 5 4 3 -7 0 1 1 4 1 1 2 1 2 5 -2 -2 3 1
-1 -2 -3 -2 -1 1 -1 -3 -2 1 -2 -3 -1 -7 -7 -3 -3 -3 -5 -3 0 -0 0 2 4 -1 2 7 0 7 -3 -1 1 5 3 3 5 0 4 -3 43 2 3 1
0 -1 -1 -3 -2 -2 0 -2 -3 -3 -0 -3 4 -8 0 -5 -6 -6 -6 -6 -6 -4 -3 -0 3 5 2 -3 9 2 -0 2 -2 1 3 6 4 3 3 -8 10 0 -6 -3
0 -2 -1 -1 -2 -3 -4 -2 -2 -1 -3 -4 -6 1 -6 -6 -9 -7 -6 -9 -8 -7 -4 2 -0 -0 1 0 -2 5 5 2 3 -4 1 3 4 2 6 7 -9 -31 46 -4
-2 -2 -2 1 0 2 0 0 -1 -0 -1 -1 -4 -2 -7 -4 -5 -8 -8 -6 -6 -6 -6 -6 -5 -5 -7 -3 2 2 2 3 5 1 -1 1 3 2 4 2 2 -11 -0 58
1 -1 -6 -4 -0 -2 -2 -2 -4 -5 -3 -5 -8 -9 -2 -4 -5 -5 -6 -6 -5 -6 -8 -5 -5 -7 -8 -4 -0 2 0 -0 4 4 0 -2 5 3 2 2 5 2 -2 6
-0 5 1 -2 -5 -5 -2 -1 -0 -11 -7 -2 -12 -9 -9 -4 -4 -4 -7 -6 -6 -4 -4 -6 -2 -6 -6 -3 -0 -1 -2 -2 1 6 1 -1 -0 4 1 -2 4 3 2 6
-7 1 0 1 3 2 1 -1 -1 -3 4 2 -1 -4 -8 -5 -5 -3 -6 -6 -5 -1 1 0 -4 -5 -3 -2 -3 -3 -3 -3 -5 2 3 -1 0 3 3 -2 0 -0 1 6
-5 -7 -4 -3 -3 -2 -3 -6 -11 -3 -8 -3 -8 -2 -5 -6 -6 -9 -11 -8 -4 -3 3 -0 -2 -2 0 -1 -1 -1 -2 2 -1 -8 2 5 -5 -3 4 1 -4 -0 2 2
-2 -0 -3 -2 -1 -2 -1 3 2 -2 1 -2 3 -10 -6 -6 -4 1 -6 -7 -6 -4 1 -2 0 -1 -1 -2 -1 -1 -3 2 2 1 -7 2 7 -3 -4 4 -4 -1 -0 1
-4 -5 -3 -3 -2 -1 -4 -2 3 -1 -5 -3 3 -8 -0 -4 -4 -2 -5 -6 -8 -8 -2 3 1 0 -3 -2 -2 -1 0 -4 1 5 3 -4 -1 2 -3 -2 1 -1 -2 -5
2 -1 -1 -1 2 1 -2 -4 -1 3 0 -1 -4 -0 -1 -1 -6 -5 -4 -8 -7 -4 -3 -1 -1 1 1 -1 1 -1 -0 3 1 2 5 7 3 -3 2 -2 -1 4 0 -4
2 0 -2 -3 -2 5 -3 -5 -1 -0 -2 1 -9 9 -4 -4 -2 -4 -5 -4 -4 -6 -4 -1 -1 -1 -0 -1 -1 -1 -2 -2 -2 -2 -3 1 1 2 3 -5 -7 -2 -0 2
-1 4 2 -2 -4 -1 3 -5 -2 0 -5 3 -2 0 -1 -0 0 -2 -2 -1 -1 -2 -2 -4 -2 -0 -1 -3 -5 -2 -1 -1 -0 1 -1 -3 -9 -4 1 2 -2 -3 -10 3
-1 -2 1 7 -4 -2 10 -8 -7 -4 -5 5 -3 5 -5 -4 -3 -3 -4 -4 -3 -3 -2 -2 -3 -1 -1 -1 -2 -2 -3 -4 -1 -1 -1 1 -3 -1 -3 -4 2 -2 -3 -13
-1 -2 -3 4 -1 2 -2 2 2 4 4 -1 -3 -2 -0 -1 -4 -3 -1 -2 -1 -1 -3 -1 -1 -1 -1 -1 1 -1 -1 -3 -5 -2 2 3 0 -1 -4 -2 -4 -1 0 -0
1 -1 -6 -5 -5 5 -2 -0 1 3 -9 -2 1 -1 -1 -0 1 -3 -6 0 -1 -1 -2 -2 -2 -2 -3 -2 -3 -1 -0 -0 -2 -5 -3 2 3 2 -3 -7 -2 -0 -2 1
-2 -3 -10 -5 -2 4 6 -11 -4 1 12 -7 3 -4 0 -2 4 -1 -6 -4 -3 -2 0 -2 -3 -3 -1 -1 -2 -2 -1 -1 -0 -2 -4 -2 0 3 1 -0 -4 -2 -1 -4
-4 -3 -2 -3 -4 -7 -8 3 -2 0 4 3 -3 -3 -3 -2 0 2 -3 -3 -4 -3 -0 -1 -2 -2 -2 -2 -2 -2 -3 -3 -1 -1 -1 -1 -1 0 3 3 -2 1 -0 1
-6 1 -3 -4 -6 8 -8 -8 -1 -1 -1 3 6 -1 -2 -1 -3 1 -4 1 -0 -1 -1 -0 -1 -1 -1 -2 -2 -2 -3 -4 -3 -3 -1 -1 -2 0 -0 2 -1 -0 1 4
-4 -5 1 1 -6 -3 5 -2 -3 -1 1 -1 -3 -4 -4 -4 -1 1 -2 -2 0 -1 -1 -0 -2 -2 -2 -3 -2 -1 -2 -2 -2 -3 -2 0 -2 -0 -1 -1 -1 -4 -4 -3
-1 -3 1 -6 4 -5 -5 -0 -1 -2 1 1 -0 0 -2 1 1 0 3 -2 -0 -1 -0 -0 -1 -1 -3 -2 -1 2 1 -0 -2 -2 -2 -2 -3 -1 -1 -1 -1 -2 -3 -1
-5 -9 -2 -2 12 4 -2 -2 0 -1 -2 1 -2 1 1 1 -2 3 -0 0 0 -1 -1 -1 -1 -1 -1 -3 -3 -0 -2 -1 -2 -2 -2 -1 -1 -0 -5 -2 -2 -2 -4 -2
-10 -5 -0 7 -2 1 -4 -4 -1 4 -3 -1 -0 -3 0 -2 3 -3 2 0 0 -0 -1 -0 -1 -2 -3 -2 -2 1 -3 -2 -2 -2 -3 -2 -2 -3 -0 -2 -3 -3 -3 -5
-10 -5 1 11 -3 -5 9 5 -10 -1 -2 -2 -3 6 -0 -6 0 -3 2 0 1 0 1 0 -1 -2 -2 -2 -2 0 -2 -2 -0 1 -0 -2 -1 -2 -6 -2 4 -5 -0 -5
Height
5823 5823 5822 5822 5821 5820 5820 5819 5819 5818 5818 5816 5814 5813 5813 5812 5809 5806 5805 5802 5800 5800 5799 5799 5799 5799 5800 5803 5810 5813 5816 5821 5823 5829 5835 5840 5845 5850 5852 5855 5859 5861 5864 5866
5821 5820 5820 5820 5819 5817 5815 5814 5812 5811 5810 5808 5805 5803 5802 5801 5799 5796 5792 5789 5787 5783 5783 5784 5782 5783 5784 5785 5788 5794 5800 5805 5810 5813 5820 5827 5833 5836 5840 5842 5845 5851 5855 5858
5817 5817 5816 5816 5815 5813 5810 5808 5806 5806 5803 5801 5797 5794 5791 5788 5785 5783 5780 5776 5772 5770 5766 5762 5765 5765 5765 5769 5770 5774 5778 5787 5792 5798 5804 5811 5818 5822 5827 5831 5834 5837 5844 5850
5813 5812 5812 5811 5809 5807 5805 5802 5800 5797 5795 5793 5790 5786 5782 5777 5772 5770 5765 5761 5758 5753 5749 5747 5743 5743 5745 5746 5751 5755 5760 5766 5773 5780 5787 5793 5801 5806 5813 5819 5827 5828 5831 5836
5808 5807 5806 5805 5803 5801 5799 5796 5793 5790 5787 5785 5782 5778 5772 5768 5761 5756 5751 5747 5741 5736 5731 5728 5726 5724 5722 5726 5728 5734 5739 5745 5752 5761 5768 5776 5782 5789 5797 5805 5811 5812 5805 5821
5802 5801 5799 5798 5797 5795 5792 5789 5786 5782 5779 5775 5771 5768 5763 5757 5751 5744 5738 5732 5727 5721 5715 5712 5710 5709 5708 5707 5710 5713 5718 5724 5730 5739 5749 5756 5764 5771 5780 5787 5794 5799 5793 5792
5797 5796 5793 5791 5789 5787 5783 5780 5776 5773 5769 5766 5762 5758 5753 5747 5740 5733 5726 5720 5713 5708 5704 5700 5698 5698 5698 5698 5696 5698 5702 5706 5712 5719 5728 5738 5744 5752 5760 5769 5777 5782 5785 5785
5791 5790 5787 5784 5782 5780 5777 5774 5771 5766 5762 5758 5751 5748 5743 5736 5730 5723 5715 5707 5701 5697 5693 5691 5691 5691 5691 5691 5689 5688 5688 5693 5697 5702 5709 5719 5727 5733 5742 5750 5759 5767 5771 5772
5783 5781 5779 5776 5773 5772 5767 5764 5762 5758 5754 5750 5744 5739 5733 5726 5720 5713 5705 5696 5689 5684 5683 5683 5683 5684 5683 5684 5683 5682 5681 5681 5685 5690 5695 5702 5710 5717 5722 5731 5739 5748 5756 5760
5777 5775 5772 5769 5766 5763 5760 5757 5753 5750 5745 5740 5735 5730 5724 5717 5710 5702 5694 5685 5679 5671 5672 5674 5675 5675 5676 5677 5677 5676 5676 5675 5674 5677 5683 5689 5695 5702 5707 5713 5721 5730 5737 5743
5770 5769 5766 5762 5759 5756 5752 5748 5745 5742 5738 5732 5727 5722 5715 5708 5701 5694 5686 5677 5669 5663 5661 5664 5667 5668 5669 5669 5670 5671 5669 5669 5668 5668 5669 5675 5680 5686 5692 5697 5705 5712 5719 5725
5763 5760 5757 5755 5752 5748 5745 5741 5737 5733 5729 5724 5720 5715 5708 5701 5693 5686 5677 5670 5663 5658 5656 5658 5660 5661 5661 5661 5661 5662 5662 5662 5662 5662 5662 5662 5665 5671 5675 5681 5686 5694 5700 5706
5756 5754 5750 5747 5745 5741 5736 5732 5728 5725 5720 5717 5712 5709 5701 5695 5687 5681 5674 5666 5661 5657 5654 5654 5654 5654 5653 5653 5652 5652 5652 5652 5652 5652 5653 5654 5655 5656 5660 5664 5668 5673 5682 5689
5749 5746 5743 5740 5736 5732 5728 5725 5720 5717 5713 5710 5705 5702 5694 5690 5684 5677 5671 5665 5659 5656 5653 5651 5649 5648 5646 5645 5643 5642 5641 5641 5640 5641 5641 5641 5642 5644 5645 5650 5654 5657 5662 5668
5742 5740 5736 5732 5728 5725 5722 5718 5713 5710 5706 5703 5698 5695 5688 5683 5677 5672 5668 5663 5658 5653 5649 5647 5645 5642 5639 5637 5636 5634 5632 5631 5630 5628 5628 5628 5630 5632 5634 5636 5638 5642 5645 5649
5734 5730 5727 5725 5721 5717 5715 5711 5706 5701 5699 5695 5690 5687 5681 5676 5670 5664 5662 5657 5652 5647 5644 5640 5638 5636 5633 5631 5629 5626 5625 5623 5621 5620 5619 5617 5616 5617 5619 5621 5623 5624 5628 5634
5724 5721 5719 5717 5713 5711 5710 5704 5698 5694 5691 5687 5683 5680 5675 5671 5665 5658 5655 5651 5646 5642 5637 5633 5630 5627 5625 5622 5620 5618 5617 5614 5612 5610 5610 5609 5607 5605 5603 5605 5608 5610 5612 5614
5716 5714 5711 5708 5706 5702 5702 5696 5691 5687 5685 5679 5676 5672 5668 5663 5660 5653 5647 5645 5641 5636 5631 5627 5623 5619 5616 5613 5609 5606 5604 5602 5601 5600 5599 5598 5597 5596 5594 5592 5591 5592 5595 5598
5710 5707 5703 5700 5696 5695 5694 5687 5683 5679 5679 5670 5668 5663 5660 5656 5652 5648 5640 5636 5633 5629 5624 5620 5616 5612 5609 5605 5601 5596 5592 5590 5588 5588 5587 5587 5586 5585 5584 5582 5579 5578 5579 5582
5702 5699 5696 5692 5688 5686 5684 5679 5675 5670 5669 5664 5659 5655 5651 5648 5643 5640 5635 5630 5626 5621 5617 5613 5608 5604 5601 5597 5592 5588 5584 5580 5577 5576 5575 5575 5574 5573 5572 5571 5571 5568 5566 5565
5694 5689 5688 5682 5679 5680 5675 5671 5667 5664 5662 5655 5653 5648 5643 5640 5635 5631 5625 5623 5618 5614 5609 5605 5601 5597 5593 5589 5584 5579 5575 5571 5568 5565 5564 5563 5562 5561 5560 5559 5559 5558 5556 5554
5688 5682 5678 5674 5672 5670 5666 5664 5661 5656 5652 5646 5642 5637 5633 5630 5627 5622 5617 5612 5609 5604 5600 5597 5592 5588 5584 5580 5576 5571 5567 5563 5559 5555 5552 5551 5550 5548 5547 5546 5545 5544 5545 5543
5679 5674 5668 5667 5666 5662 5657 5653 5651 5646 5643 5640 5635 5631 5625 5623 5619 5614 5608 5602 5599 5595 5592 5588 5584 5580 5576 5572 5568 5564 5559 5555 5550 5546 5542 5539 5537 5536 5534 5533 5532 5532 5531 5531
5670 5664 5658 5657 5661 5654 5652 5645 5640 5635 5631 5628 5624 5620 5617 5612 5608 5603 5598 5592 5588 5585 5581 5578 5575 5571 5567 5563 5559 5555 5550 5545 5540 5536 5532 5529 5526 5523 5521 5520 5518 5517 5517 5518
5661 5655 5651 5653 5649 5642 5643 5637 5632 5627 5622 5618 5614 5610 5606 5600 5597 5591 5588 5583 5579 5575 5571 5568 5565 5561 5558 5554 5550 5546 5541 5536 5531 5527 5523 5519 5516 5512 5509 5506 5504 5504 5502 5502
5649 5646 5646 5643 5638 5633 5634 5628 5622 5616 5612 5606 5602 5600 5594 5587 5584 5580 5577 5572 5568 5564 5561 5558 5554 5551 5547 5545 5541 5537 5533 5529 5525 5520 5516 5512 5506 5501 5495 5492 5491 5488 5487 5487